Location: Newark
(45.2500°N, 7.5833°E)
Time: 14:09:50
(UTC+00:00)

A-11 Canister half - Pass Details

Date: 05 February 2020
Orbit: 1524 x 1684 km, 47.3° (Epoch: 28 February)

Event Time Altitude Azimuth Distance (km) Brightness Sun altitude
Rises 20:34:23 0° 293° (WNW) 4,710 12.4 -40.8°
Reaches altitude 10° 20:37:36 10° 287° (WNW) 3,741 11.7 -41.3°
Enters shadow 20:45:36 42° 231° (SW) 2,132 9.7 -42.6°
